Civil Air Patrol

Glenn L. Martin Composite Squadron

Welcome to the Glenn L. Martin Composite Squadron Civil Air Patrol

 

We are the official auxiliary of the United States Air Force.

Our 3 main missions are cadet programs, aerospace education and emergency services.

Click each link to learn more about each mission.

 

Here is a short video from National Headquarters about CAP

 

 


 

 
Current METAR for KMTN (Martin State Airport)

KMTN 201645Z 30011G18KT 10SM SCT045 BKN090 11/04 A2997

 

Current TAF for KBWI (Baltimore Washington International)

TAF AMD KBWI 201453Z 2015/2118 31009KT P6SM BKN070 FM201700 30012G21KT P6SM SCT080 FM210300 30008KT P6SM SKC FM211300 26006KT P6SM FEW250